Temp
-8 -8 -8 -8 -8 -8 -8 -8 -8 -8 -8 -9 -10 -9 -9 -9 -10 -10 -10 -10 -10 -11 -11 -11 -11 -11 -11 -11 -11 -11 -11 -11 -11 -11 -11 -11 -11 -12 -13 -13 -13 -12 -12 -12
-8 -8 -8 -8 -9 -9 -9 -8 -9 -9 -9 -9 -9 -9 -9 -9 -10 -10 -9 -10 -10 -10 -10 -10 -10 -11 -11 -11 -11 -11 -11 -11 -12 -11 -11 -11 -12 -12 -13 -13 -14 -13 -13 -12
-9 -9 -9 -9 -9 -9 -9 -9 -9 -9 -9 -9 -9 -9 -9 -9 -9 -10 -10 -10 -10 -10 -10 -11 -11 -11 -11 -11 -11 -11 -11 -11 -12 -12 -11 -12 -12 -12 -12 -13 -13 -13 -14 -13
-9 -9 -9 -9 -9 -9 -9 -9 -9 -9 -9 -9 -9 -9 -9 -9 -9 -9 -10 -10 -10 -11 -11 -11 -11 -12 -11 -11 -11 -11 -11 -12 -12 -12 -12 -12 -12 -12 -12 -12 -13 -13 -13 -13
-9 -9 -9 -9 -9 -9 -9 -9 -9 -9 -9 -9 -9 -9 -9 -9 -10 -10 -10 -10 -11 -11 -11 -11 -12 -11 -11 -11 -12 -12 -12 -13 -13 -12 -12 -13 -12 -12 -12 -12 -12 -12 -13 -13
-10 -10 -10 -10 -10 -10 -9 -9 -9 -9 -9 -9 -10 -9 -9 -9 -10 -10 -10 -11 -11 -11 -11 -11 -12 -11 -12 -12 -13 -12 -13 -13 -13 -13 -13 -13 -12 -12 -12 -12 -12 -12 -12 -12
-10 -10 -10 -10 -10 -10 -10 -10 -10 -10 -10 -10 -10 -10 -10 -10 -10 -10 -10 -11 -11 -11 -11 -11 -11 -12 -13 -13 -13 -13 -13 -13 -14 -14 -13 -13 -13 -13 -12 -12 -12 -12 -12 -12
-11 -11 -11 -11 -10 -10 -10 -10 -10 -10 -10 -10 -10 -10 -10 -10 -11 -11 -11 -11 -11 -11 -11 -12 -13 -13 -13 -13 -13 -13 -14 -13 -14 -14 -13 -13 -13 -13 -13 -12 -12 -12 -12 -12
-11 -12 -12 -11 -11 -11 -11 -11 -11 -11 -10 -11 -11 -11 -11 -11 -11 -11 -11 -12 -12 -12 -12 -13 -14 -14 -13 -13 -13 -14 -14 -14 -14 -13 -13 -13 -13 -13 -13 -12 -12 -12 -12 -12
-12 -12 -12 -12 -11 -11 -11 -11 -11 -11 -11 -11 -11 -11 -11 -11 -12 -12 -12 -12 -12 -13 -13 -14 -14 -13 -13 -13 -14 -14 -14 -14 -14 -13 -13 -13 -13 -13 -13 -13 -12 -12 -12 -12
-12 -13 -13 -13 -13 -12 -12 -12 -12 -12 -12 -12 -12 -11 -12 -12 -12 -13 -13 -12 -13 -13 -13 -13 -13 -13 -13 -14 -14 -14 -14 -14 -14 -14 -14 -13 -13 -13 -13 -13 -13 -13 -13 -14
-14 -13 -13 -13 -13 -13 -12 -12 -12 -12 -12 -12 -12 -12 -12 -12 -12 -12 -13 -13 -13 -13 -13 -14 -14 -14 -14 -14 -14 -14 -14 -14 -14 -14 -14 -14 -13 -13 -13 -13 -14 -13 -14 -14
-15 -14 -13 -13 -13 -13 -13 -13 -13 -13 -13 -13 -12 -12 -13 -12 -13 -13 -13 -13 -13 -14 -14 -14 -14 -14 -14 -14 -14 -15 -15 -14 -14 -14 -14 -14 -14 -14 -14 -14 -14 -14 -14 -14
-15 -14 -14 -13 -13 -13 -13 -13 -13 -13 -13 -13 -12 -13 -13 -13 -13 -13 -13 -14 -14 -14 -14 -14 -14 -14 -14 -14 -14 -15 -15 -14 -15 -14 -14 -14 -14 -14 -14 -14 -15 -14 -14 -14
-14 -14 -15 -15 -14 -14 -13 -13 -13 -13 -13 -13 -13 -13 -13 -13 -13 -13 -14 -14 -14 -14 -14 -14 -14 -15 -15 -15 -15 -15 -15 -15 -14 -14 -14 -14 -14 -14 -15 -15 -14 -14 -14 -14
-14 -15 -15 -15 -15 -14 -14 -13 -13 -13 -13 -13 -13 -14 -14 -14 -14 -14 -14 -14 -14 -14 -14 -15 -15 -15 -15 -14 -14 -15 -15 -15 -15 -14 -14 -14 -14 -15 -15 -15 -14 -14 -14 -14
-16 -16 -15 -15 -15 -15 -14 -13 -14 -14 -14 -14 -14 -14 -14 -14 -14 -14 -14 -14 -14 -14 -15 -15 -15 -15 -14 -14 -15 -15 -15 -15 -14 -14 -14 -15 -15 -15 -15 -14 -14 -14 -14 -14
-16 -16 -16 -16 -15 -15 -14 -14 -14 -15 -15 -15 -14 -14 -14 -14 -14 -13 -14 -14 -14 -15 -15 -15 -15 -14 -14 -15 -15 -15 -15 -14 -14 -14 -15 -14 -15 -15 -15 -14 -15 -15 -15 -15
-16 -16 -16 -16 -15 -15 -14 -14 -15 -15 -15 -14 -14 -14 -14 -14 -14 -14 -14 -14 -14 -14 -14 -14 -14 -14 -14 -15 -15 -15 -14 -14 -14 -15 -14 -15 -15 -15 -15 -15 -15 -15 -14 -15
-16 -16 -16 -15 -15 -14 -14 -15 -15 -15 -14 -14 -14 -14 -14 -14 -14 -14 -14 -14 -14 -14 -14 -14 -14 -14 -15 -15 -15 -15 -14 -15 -15 -15 -15 -15 -15 -15 -15 -15 -15 -15 -15 -15
-16 -15 -15 -15 -14 -15 -14 -15 -15 -15 -15 -14 -14 -14 -14 -14 -14 -14 -14 -14 -14 -14 -14 -14 -14 -15 -16 -16 -15 -14 -14 -15 -15 -15 -15 -15 -15 -15 -15 -15 -15 -15 -15 -15
-16 -16 -15 -15 -15 -14 -14 -14 -15 -15 -15 -14 -14 -14 -14 -14 -14 -14 -14 -14 -14 -14 -14 -14 -14 -15 -16 -15 -15 -14 -14 -14 -15 -15 -15 -15 -15 -15 -15 -15 -15 -15 -15 -15
-16 -16 -15 -15 -15 -15 -15 -14 -15 -15 -15 -14 -14 -15 -15 -14 -14 -14 -14 -14 -14 -14 -14 -14 -15 -15 -16 -15 -15 -15 -15 -15 -15 -15 -15 -15 -15 -15 -15 -15 -15 -15 -15 -15
-17 -16 -15 -15 -15 -15 -15 -15 -15 -15 -15 -15 -15 -14 -15 -14 -14 -14 -14 -14 -14 -14 -14 -14 -15 -15 -15 -15 -15 -15 -15 -15 -15 -15 -15 -15 -15 -15 -15 -15 -15 -15 -15 -15
-17 -16 -16 -16 -16 -15 -15 -15 -15 -15 -15 -15 -15 -15 -15 -15 -15 -14 -14 -14 -14 -14 -14 -15 -15 -15 -15 -16 -15 -15 -14 -15 -15 -15 -15 -15 -15 -15 -15 -14 -14 -14 -14 -15
-17 -17 -17 -16 -16 -16 -15 -16 -16 -16 -16 -16 -16 -15 -15 -15 -15 -14 -14 -14 -14 -14 -15 -15 -15 -15 -15 -16 -15 -16 -14 -15 -15 -15 -15 -15 -15 -15 -15 -15 -15 -15 -14 -14
Height
5859 5860 5861 5862 5863 5864 5865 5866 5865 5865 5865 5867 5866 5865 5865 5864 5865 5865 5864 5862 5861 5860 5859 5857 5854 5852 5848 5844 5839 5835 5830 5826 5822 5817 5813 5808 5802 5796 5789 5783 5778 5774 5770 5766
5856 5856 5857 5858 5859 5860 5860 5861 5861 5862 5861 5861 5862 5862 5861 5861 5861 5862 5860 5859 5858 5856 5854 5852 5849 5847 5843 5838 5832 5827 5822 5816 5810 5806 5801 5796 5791 5786 5781 5775 5768 5762 5758 5754
5851 5852 5853 5854 5855 5856 5856 5856 5856 5857 5856 5857 5857 5857 5857 5858 5858 5857 5855 5853 5851 5849 5847 5845 5842 5839 5835 5831 5827 5821 5815 5808 5803 5798 5792 5786 5781 5776 5771 5765 5760 5754 5749 5745
5845 5846 5848 5849 5850 5851 5852 5852 5852 5852 5853 5853 5853 5854 5853 5854 5853 5852 5850 5848 5846 5843 5841 5839 5835 5831 5827 5822 5818 5813 5807 5800 5794 5789 5783 5777 5771 5766 5760 5754 5748 5743 5737 5734
5841 5840 5842 5844 5844 5846 5848 5847 5848 5847 5848 5848 5849 5848 5850 5849 5848 5845 5844 5842 5839 5837 5835 5832 5828 5824 5820 5814 5809 5804 5798 5792 5786 5781 5773 5768 5762 5755 5748 5740 5734 5729 5724 5719
5833 5835 5837 5838 5839 5840 5842 5842 5843 5843 5843 5845 5844 5843 5846 5845 5844 5841 5838 5836 5835 5833 5830 5826 5822 5817 5811 5806 5801 5795 5790 5784 5778 5770 5763 5756 5749 5742 5735 5728 5721 5714 5708 5703
5827 5829 5831 5833 5834 5835 5836 5837 5837 5838 5838 5839 5838 5839 5840 5837 5836 5834 5832 5831 5829 5826 5822 5818 5813 5808 5803 5798 5793 5787 5781 5774 5767 5761 5753 5745 5738 5730 5722 5713 5704 5697 5690 5684
5821 5823 5825 5826 5828 5828 5830 5831 5832 5831 5832 5832 5831 5833 5833 5831 5828 5827 5825 5824 5823 5819 5814 5809 5805 5800 5795 5789 5784 5777 5771 5764 5757 5750 5742 5734 5725 5716 5707 5697 5688 5680 5672 5666
5814 5816 5817 5819 5820 5823 5825 5825 5825 5826 5825 5825 5826 5827 5825 5823 5821 5819 5818 5817 5814 5810 5806 5802 5797 5792 5787 5781 5774 5768 5762 5755 5748 5740 5731 5723 5713 5704 5693 5683 5671 5662 5654 5648
5808 5810 5811 5813 5814 5817 5818 5819 5820 5820 5818 5819 5821 5821 5819 5817 5814 5812 5810 5808 5805 5802 5798 5794 5789 5784 5778 5772 5765 5759 5752 5746 5738 5729 5720 5711 5701 5690 5680 5668 5656 5643 5635 5631
5802 5804 5807 5806 5809 5810 5811 5812 5813 5814 5813 5812 5812 5815 5815 5811 5807 5807 5804 5801 5798 5795 5791 5786 5780 5775 5768 5763 5757 5750 5744 5736 5728 5720 5710 5699 5689 5679 5668 5656 5645 5633 5624 5619
5795 5797 5800 5802 5803 5804 5805 5806 5807 5807 5808 5806 5806 5808 5806 5804 5802 5801 5797 5794 5790 5787 5782 5776 5771 5765 5760 5755 5749 5741 5734 5726 5719 5709 5698 5688 5678 5668 5657 5646 5637 5628 5620 5613
5790 5789 5792 5794 5797 5800 5799 5800 5800 5800 5800 5800 5799 5801 5798 5798 5797 5794 5791 5787 5783 5778 5774 5769 5764 5759 5753 5747 5739 5731 5724 5718 5708 5697 5688 5678 5668 5659 5648 5639 5631 5623 5615 5609
5781 5782 5785 5788 5792 5792 5792 5794 5794 5793 5792 5793 5793 5792 5791 5790 5788 5786 5783 5779 5775 5771 5766 5762 5757 5752 5744 5737 5730 5723 5716 5706 5696 5688 5678 5669 5660 5650 5641 5634 5627 5619 5612 5605
5772 5774 5777 5779 5782 5783 5785 5787 5786 5787 5787 5786 5785 5784 5784 5782 5780 5777 5773 5771 5767 5763 5759 5755 5750 5743 5737 5730 5722 5714 5704 5696 5688 5679 5670 5661 5652 5642 5635 5629 5623 5616 5608 5602
5759 5766 5769 5770 5773 5775 5776 5777 5777 5779 5779 5778 5776 5776 5776 5775 5772 5768 5766 5763 5759 5755 5752 5748 5742 5737 5730 5722 5713 5704 5696 5688 5679 5670 5661 5653 5644 5636 5631 5625 5619 5612 5605 5598
5752 5757 5761 5762 5764 5765 5765 5768 5770 5771 5771 5769 5768 5768 5767 5765 5763 5761 5758 5755 5752 5749 5746 5741 5735 5729 5721 5714 5705 5697 5689 5680 5671 5662 5653 5644 5637 5631 5626 5621 5615 5608 5601 5595
5741 5746 5750 5751 5753 5753 5757 5760 5763 5764 5763 5761 5760 5759 5757 5756 5754 5752 5750 5748 5746 5743 5738 5733 5728 5721 5714 5706 5698 5690 5681 5672 5663 5653 5644 5636 5630 5626 5622 5617 5611 5605 5599 5594
5730 5734 5736 5739 5742 5746 5747 5752 5755 5753 5755 5756 5754 5752 5750 5748 5746 5745 5744 5742 5740 5736 5732 5727 5721 5715 5707 5699 5692 5684 5675 5666 5655 5644 5635 5629 5626 5623 5619 5614 5610 5604 5599 5595
5720 5722 5724 5728 5731 5734 5739 5742 5744 5746 5748 5748 5748 5746 5744 5742 5741 5740 5738 5737 5734 5730 5726 5721 5716 5708 5701 5694 5687 5678 5669 5659 5647 5637 5631 5627 5624 5621 5617 5613 5609 5605 5600 5597
5709 5711 5714 5718 5720 5725 5729 5733 5736 5739 5742 5740 5739 5738 5738 5737 5737 5735 5734 5732 5729 5725 5721 5715 5710 5703 5697 5690 5681 5673 5663 5652 5642 5634 5630 5627 5624 5620 5616 5614 5610 5606 5603 5600
5701 5703 5704 5706 5711 5715 5720 5724 5729 5731 5732 5733 5732 5731 5731 5731 5731 5731 5729 5726 5724 5720 5715 5710 5705 5699 5692 5684 5676 5667 5657 5647 5637 5633 5631 5627 5624 5620 5618 5615 5612 5609 5606 5603
5694 5697 5699 5704 5704 5708 5711 5714 5718 5723 5724 5724 5725 5725 5725 5725 5726 5725 5724 5722 5718 5714 5711 5707 5701 5695 5687 5680 5672 5663 5654 5644 5636 5632 5631 5628 5625 5622 5620 5617 5614 5611 5609 5607
5686 5688 5691 5696 5700 5702 5706 5708 5712 5715 5717 5718 5718 5720 5720 5721 5721 5721 5720 5717 5714 5711 5708 5703 5698 5691 5684 5677 5669 5661 5651 5642 5636 5633 5631 5629 5626 5623 5620 5618 5615 5613 5613 5611
5679 5682 5684 5688 5691 5694 5698 5702 5704 5708 5709 5711 5713 5715 5715 5716 5717 5716 5715 5713 5710 5708 5704 5699 5694 5687 5681 5675 5667 5658 5649 5641 5636 5634 5632 5629 5626 5623 5620 5617 5615 5614 5615 5614
5673 5676 5678 5680 5683 5687 5691 5695 5698 5700 5703 5705 5708 5710 5710 5711 5712 5712 5710 5709 5707 5704 5700 5696 5690 5684 5678 5672 5665 5657 5648 5642 5638 5635 5633 5629 5626 5622 5619 5618 5617 5617 5617 5616
Wind_Speed
17 18 18 20 19 20 20 20 21 21 20 19 21 20 20 18 16 16 18 17 18 18 20 21 24 25 29 32 38 40 44 44 43 41 43 43 42 39 39 42 43 46 47 46
20 21 21 21 20 22 20 21 21 21 21 21 18 20 22 21 19 19 18 19 20 22 24 25 26 28 31 35 40 42 45 47 46 46 48 47 46 46 42 41 41 43 46 45
22 23 24 23 23 23 22 22 22 22 20 20 19 20 21 23 24 20 21 22 24 26 27 28 30 31 34 38 42 44 46 49 49 50 50 50 50 50 48 44 44 43 45 45
25 25 24 25 26 26 25 23 23 22 21 21 21 23 24 24 25 23 23 25 26 27 27 30 33 35 38 42 43 45 48 51 52 51 52 53 54 55 52 49 45 47 48 48
25 27 25 25 27 27 25 24 22 22 21 23 23 26 23 24 24 24 25 27 28 28 30 32 34 37 41 45 44 46 49 52 50 51 54 54 56 59 56 54 50 47 48 52
26 26 25 26 28 26 25 24 23 22 23 24 24 27 24 24 25 26 27 28 28 30 32 34 37 40 42 44 46 49 51 51 51 51 54 56 59 58 58 56 53 54 52 51
26 27 25 27 27 25 24 25 25 26 24 25 25 25 23 25 26 28 29 29 30 31 34 36 38 40 42 45 48 51 51 48 49 51 55 56 56 57 58 58 60 59 55 52
25 25 25 27 28 28 27 26 27 27 26 28 28 25 24 25 27 29 30 30 30 32 34 37 37 39 44 48 50 50 49 50 49 54 56 55 57 58 61 62 63 61 57 54
24 26 26 27 28 28 25 26 26 27 29 29 28 25 25 27 29 29 30 30 31 33 36 36 38 42 46 48 49 46 49 44 49 52 54 56 57 60 62 64 63 62 57 53
29 27 25 25 28 26 26 27 26 27 31 30 28 25 27 28 29 28 29 29 33 35 36 36 40 45 48 49 47 46 45 44 50 53 54 56 57 61 63 62 64 60 54 49
29 29 26 26 23 25 26 26 25 28 29 30 30 25 24 27 29 27 29 32 34 36 37 39 43 47 48 44 44 42 44 48 52 55 55 55 58 60 60 57 53 46 38 35
29 30 28 28 26 26 27 26 25 28 27 28 28 26 25 26 29 30 32 34 36 38 39 42 45 47 46 45 48 49 49 52 56 55 55 57 59 57 55 48 45 40 33 31
28 32 29 28 28 23 24 24 25 26 27 27 29 28 29 26 27 29 31 34 36 37 39 42 44 46 47 48 49 49 49 53 57 54 54 55 54 54 48 42 34 34 25 25
30 30 30 30 26 27 26 23 25 27 29 29 30 32 32 31 30 30 32 33 35 36 39 41 43 45 47 49 49 48 53 54 51 52 53 51 50 47 41 32 31 28 24 23
36 34 31 29 26 27 27 26 27 27 28 30 34 35 31 28 28 30 33 34 35 37 40 41 42 43 45 44 44 47 47 48 50 51 50 48 50 41 34 26 27 27 23 23
35 38 38 35 34 32 31 30 31 28 31 35 38 35 31 29 30 32 33 33 35 37 39 38 38 42 44 45 46 45 46 48 49 48 45 43 49 35 26 26 27 28 29 32
45 42 39 40 40 37 38 33 31 32 35 37 37 33 30 30 33 33 32 33 35 36 36 37 37 44 44 47 45 44 46 47 47 44 43 42 43 27 25 21 28 28 24 25
39 38 38 38 38 43 38 34 33 33 36 35 32 31 30 30 33 32 31 30 32 34 35 35 40 42 45 46 43 44 45 44 43 44 45 47 24 21 20 23 23 23 20 19
41 41 46 38 40 43 41 36 34 30 28 27 28 29 28 32 31 28 25 28 32 33 32 33 37 41 45 43 41 42 42 43 44 45 45 17 19 15 18 19 22 19 15 19
37 36 40 39 43 42 34 35 27 23 24 21 20 25 28 28 26 25 26 27 29 27 30 33 37 41 41 39 39 39 43 43 45 43 16 17 16 15 14 18 19 15 13 18
40 38 45 49 42 31 35 27 24 23 24 22 26 27 26 24 24 24 25 26 25 27 30 33 37 40 37 37 37 40 43 44 49 15 15 14 14 12 12 15 19 19 11 14
36 34 27 45 38 35 36 38 29 25 24 26 28 26 23 22 21 22 23 22 24 27 30 33 37 37 35 35 38 40 41 45 27 14 13 15 13 13 12 15 19 13 14 12
27 31 32 29 34 37 29 35 27 25 19 23 23 22 22 20 20 22 21 22 24 27 30 32 35 36 34 35 38 41 39 47 21 13 10 13 16 15 12 14 16 13 13 18
21 22 27 26 28 21 22 19 20 27 29 23 22 23 20 19 21 21 20 21 24 26 29 31 34 37 33 34 37 38 39 41 20 10 10 12 14 15 17 14 12 8 8 15
21 19 22 25 24 23 23 22 23 21 23 22 22 22 19 20 21 20 19 21 23 26 28 30 33 36 32 31 36 37 41 30 17 8 11 12 15 20 19 11 8 6 6 9
21 18 18 21 25 25 23 23 22 23 23 22 20 21 19 20 20 19 19 21 23 24 27 30 32 34 32 29 33 36 41 20 13 9 12 16 19 17 12 8 8 9 7 8
Wind_Direction
245 242 240 236 238 248 253 254 257 266 271 264 260 254 253 256 259 256 255 263 272 280 288 294 296 304 306 307 306 307 309 313 319 320 320 318 321 317 306 299 295 292 289 285
247 246 245 244 245 252 255 258 263 267 268 265 253 252 253 256 259 262 264 269 276 281 282 288 298 303 306 306 306 310 314 316 318 318 318 319 321 318 311 298 291 289 287 286
250 250 250 249 252 256 257 260 263 264 264 261 264 260 264 263 265 274 283 286 288 292 295 301 303 305 305 303 305 309 316 317 317 317 315 316 317 314 312 305 291 286 284 283
254 256 253 252 253 255 256 258 263 264 265 267 268 268 267 272 277 284 288 289 293 300 302 301 304 304 302 303 307 310 315 316 314 312 311 312 313 310 311 309 300 285 281 279
255 255 254 253 253 254 256 260 261 265 269 270 278 276 276 283 292 294 292 293 296 301 301 300 302 300 300 303 310 311 314 312 310 308 308 309 308 307 309 309 305 296 286 278
253 255 256 254 255 257 257 261 261 267 267 268 271 274 279 284 288 291 291 291 293 294 295 298 298 299 303 307 309 310 309 311 312 310 309 309 309 307 307 307 306 303 296 286
251 254 254 254 255 258 259 260 262 263 266 270 270 275 285 287 287 286 287 288 290 293 296 297 299 304 305 306 307 306 310 311 309 310 311 311 309 308 309 309 309 306 300 295
252 251 248 246 251 254 256 259 261 266 268 270 273 278 282 284 283 284 285 288 293 293 296 300 302 300 301 302 304 308 310 308 305 311 312 311 311 312 312 311 309 306 301 295
248 246 246 245 249 252 256 260 263 269 270 273 277 284 287 286 286 287 289 293 295 296 298 300 298 297 300 303 305 303 311 310 312 313 312 313 314 314 315 314 310 307 302 298
250 241 241 243 245 251 255 259 266 273 275 278 280 283 285 288 288 292 294 296 296 297 298 297 298 298 301 304 308 308 311 310 314 316 314 314 315 318 318 316 314 310 303 295
248 248 241 243 247 250 256 262 267 269 277 282 285 284 284 285 287 293 294 292 294 296 298 298 299 302 305 309 311 309 308 311 318 319 316 318 319 319 319 317 322 322 316 309
245 247 243 250 248 252 258 264 267 271 276 280 288 289 291 283 289 294 294 297 297 299 299 302 303 306 309 305 310 309 309 312 314 315 319 319 319 321 321 320 321 322 322 322
240 249 252 250 252 258 260 259 264 271 278 285 285 293 293 292 292 294 294 294 296 299 302 301 303 306 310 309 311 310 310 310 315 319 318 319 321 323 319 322 322 328 332 338
245 244 250 258 264 258 257 260 266 274 281 286 289 291 295 295 295 295 292 293 296 300 299 302 306 310 313 314 312 311 311 315 318 318 318 321 323 324 319 320 319 329 328 328
242 253 260 261 262 258 261 261 264 269 279 284 293 296 295 292 293 291 291 295 299 298 299 306 312 314 316 320 318 315 318 320 319 318 319 323 327 321 319 316 327 330 334 321
246 253 259 258 263 265 264 260 267 279 283 287 290 292 290 292 288 286 291 293 295 297 304 310 309 316 317 319 322 323 321 320 318 318 321 324 328 318 313 324 327 326 324 326
248 252 252 258 263 263 259 261 271 278 283 286 288 288 293 289 288 291 288 290 292 299 307 306 308 318 321 324 325 323 321 320 320 321 325 322 324 315 318 322 336 331 333 335
247 246 248 251 253 251 255 259 265 274 274 276 281 287 288 287 292 292 288 293 300 305 307 308 312 321 324 326 325 323 323 324 324 325 322 320 318 319 320 335 339 341 342 344
242 243 238 241 251 251 256 257 263 268 261 269 282 282 284 290 291 286 289 298 304 309 310 316 321 324 328 326 324 325 327 328 330 326 325 334 338 329 337 345 350 356 4 9
254 254 255 252 249 258 259 260 261 257 259 267 288 285 280 282 283 288 295 301 305 312 317 319 325 330 328 325 326 327 330 334 334 328 338 336 326 336 350 356 2 5 13 17
253 244 248 263 256 261 249 252 242 255 258 264 288 291 280 282 283 289 296 301 309 314 317 325 331 330 328 326 327 332 336 340 333 335 339 335 334 355 7 3 11 17 28 39
254 257 264 250 255 263 258 258 251 256 258 267 283 285 273 276 284 295 303 307 309 314 324 330 329 330 327 329 333 337 342 341 343 333 341 356 7 15 12 11 14 23 37 44
256 254 253 261 249 244 274 257 239 264 260 271 283 276 268 276 286 299 305 306 311 320 325 326 331 333 330 331 338 342 346 346 345 341 328 357 11 14 10 9 21 50 52 43
252 249 248 248 248 249 240 249 255 264 255 272 265 263 269 284 289 297 300 308 315 320 320 328 333 338 332 331 339 345 352 350 344 346 343 6 5 0 354 1 360 44 46 52
241 241 240 236 229 230 238 241 246 250 254 252 255 260 272 281 286 294 302 309 312 314 322 329 334 340 337 337 344 347 355 351 349 348 3 359 347 339 343 353 5 76 68 54
232 232 238 236 231 231 226 232 241 231 237 242 249 262 272 277 284 291 299 305 306 315 323 328 335 341 340 343 348 351 355 357 356 353 354 349 349 2 17 33 60 67 68 25